Zurück zum Katalog

STARLINK-32855

AktivKommunikationVLEO
NORAD 62813·PAYLOAD·🇺🇸 United States

Gestartet Jan 24, 2025 von Vandenberg Space Force Base

Loading…

Nächste Überflüge (nächste 24 Stunden)

TLE

AktuellSource: CelesTrak SupGP

Epoche: Sep 14, 2026, 21:12 UTC

1 62813C 25018H   26257.88381944 -.00058761  00000+0 -17356-2 0  2572
2 62813  53.1564 147.7062 0001253 100.7956  79.6500 15.34428802    17

Verfolge STARLINK-32855 in Echtzeit mit AllMySat

Download on the App Store